CW2313 Weather Reports


Display with metric or nautical units.
time (UTC)temp
F
wind
direction
speed
MPH
gust
MPH
rain 1hr
in
rain 24hr
in
rain mn
in
humidity
%
barometer
mb
20260503030112 58 29 0.0 0.0 0.00 0.00 0.00 50 1017.8
20260503024534 60 29 0.0 0.0 0.00 0.00 0.00 47 1017.7
20260503023033 61 29 0.0 0.0 0.00 0.00 0.00 42 1017.7
20260503021513 62 356 0.0 0.0 0.00 0.00 0.00 36 1017.7
20260503020012 63 349 0.0 0.0 0.00 0.00 0.00 35 1017.7
20260503014604 64 25 0.0 0.0 0.00 0.00 0.00 33 1017.7
20260503013055 64 70 0.0 0.0 0.00 0.00 0.00 33 1017.7
20260503011547 64 19 0.0 0.0 0.00 0.00 0.00 34 1017.7
20260503010036 64 8 0.0 0.0 0.00 0.00 0.00 34 1017.7
20260503004520 65 27 0.0 0.0 0.00 0.00 0.00 34 1017.8
20260503003018 65 46 0.0 0.0 0.00 0.00 0.00 36 1017.8
20260503001600 65 19 0.0 0.0 0.00 0.00 0.00 44 1017.9
20260503000100 64 41 0.0 0.0 0.00 0.00 0.00 47 1017.8
20260502234542 64 131 0.0 3.0 0.00 0.00 0.00 44 1017.9
20260502233042 64 60 0.0 1.0 0.00 0.00 0.00 52 1017.9
20260502231524 65 21 0.0 0.0 0.00 0.00 0.00 48 1017.9
20260502230024 66 7 0.0 0.0 0.00 0.00 0.00 46 1018.0
20260502224506 66 20 0.0 0.0 0.00 0.00 0.00 38 1018.2
20260502223004 67 5 0.0 0.0 0.00 0.00 0.00 24 1018.3
20260502221547 67 73 0.0 0.0 0.00 0.00 0.00 25 1018.5
20260502220046 66 145 0.0 0.0 0.00 0.00 0.00 25 1018.6
20260502214528 66 329 0.0 0.0 0.00 0.00 0.00 24 1018.6
20260502213038 67 241 0.0 0.0 0.00 0.00 0.00 25 1018.7
20260502211508 66 15 0.0 0.0 0.00 0.00 0.00 25 1018.7
20260502210007 66 281 0.0 0.0 0.00 0.00 0.00 25 1018.8
20260502204559 65 299 0.0 0.0 0.00 0.00 0.00 25 1018.9
20260502203108 65 232 0.0 0.0 0.00 0.00 0.00 26 1018.9
20260502201532 65 356 0.0 0.0 0.00 0.00 0.00 28 1019.0
20260502200029 65 108 0.0 0.0 0.00 0.00 0.00 27 1019.0
20260502194512 65 77 0.0 0.0 0.00 0.00 0.00 26 1019.0
20260502193009 65 102 0.0 0.0 0.00 0.00 0.00 29 1019.1
20260502191557 65 136 0.0 0.0 0.00 0.00 0.00 27 1019.1
20260502190050 65 248 0.0 0.0 0.00 0.00 0.00 27 1019.2
20260502184530 63 68 0.0 0.0 0.00 0.00 0.00 27 1019.2
20260502183030 63 220 0.0 0.0 0.00 0.00 0.00 27 1019.2
20260502181510 63 155 0.0 0.0 0.00 0.00 0.00 28 1019.2
20260502163011 60 46 0.0 0.0 0.00 0.00 0.00 31 1018.9
20260502161547 59 128 0.0 0.0 0.00 0.00 0.00 32 1017.6
20260502151606 56 65 0.0 0.0 0.00 0.00 0.00 42 1018.9
20260502123013 47 96 0.0 0.0 0.00 0.00 0.00 56 1018.6
20260502121553 46 73 0.0 0.0 0.00 0.00 0.00 59 1018.6
20260502114533 47 70 0.0 0.0 0.00 0.00 0.00 56 1018.7
20260502113031 48 114 0.0 0.0 0.00 0.00 0.00 54 1018.7
20260502111513 48 101 0.0 0.0 0.00 0.00 0.00 53 1018.7
20260502110011 48 104 0.0 0.0 0.00 0.00 0.00 53 1018.8
20260502104553 48 48 0.0 0.0 0.00 0.00 0.00 54 1018.8
20260502103058 48 50 0.0 0.0 0.00 0.00 0.00 53 1018.8
20260502101538 48 88 0.0 2.0 0.00 0.00 0.00 53 1018.7
20260502080103 52 228 0.0 0.0 0.00 0.00 0.00 42 1019.1
20260502070031 53 272 0.0 0.0 0.00 0.00 0.00 43 1019.2
20260502064549 53 250 0.0 3.0 0.00 0.00 0.00 44 1019.2
20260502063017 52 167 0.0 0.0 0.00 0.00 0.00 46 1019.2
20260502061513 52 10 0.0 0.0 0.00 0.00 0.00 47 1019.1
20260502060055 52 98 0.0 5.0 0.00 0.00 0.00 46 1019.2
20260502054558 52 66 0.0 0.0 0.00 0.00 0.00 46 1019.1
20260502053039 53 263 0.0 1.0 0.00 0.00 0.00 44 1019.0
20260502051540 54 339 0.0 1.0 0.00 0.00 0.00 43 1019.1
20260502050024 55 252 0.0 0.0 0.00 0.00 0.00 42 1019.1
20260502044525 55 208 0.0 0.0 0.00 0.00 0.00 42 1019.2
20260502043002 55 182 0.0 0.0 0.00 0.00 0.00 41 1019.3
20260502041502 55 221 0.0 0.0 0.00 0.00 0.00 41 1019.3
20260502040054 55 212 0.0 1.0 0.00 0.00 0.00 41 1019.2
20260502034544 55 215 0.0 0.0 0.00 0.00 0.00 42 1019.2
20260502033026 55 216 0.0 0.0 0.00 0.00 0.00 44 1019.1
20260502031525 55 219 0.0 1.0 0.00 0.00 0.00 44 1019.0